Regional Weather Roundup
Issued by NWS

Home | Current Version | Previous Version | Text Only | Print | Product List | Glossary Off
Versions: 1 2 3 4 5 6 7 8 9 10 11 12 13 14 15 16 17 18 19 20 21 22 23 24 25 26 27 28 29 30 31 32 33 34 35 36 37 38 39 40 41 42 43 44 45 46 47 48 49 50

022
ASUS44 KOUN 300910
RWROK

WEATHER ROUNDUP FOR OKLAHOMA
NATIONAL WEATHER SERVICE NORMAN OK
400 AM CDT SAT JUL 30 2016

NOTE: "FAIR" INDICATES FEW OR NO CLOUDS BELOW 12,000 FEET WITH NO
      SIGNIFICANT WEATHER AND/OR OBSTRUCTIONS TO VISIBILITY.

OKZ001>007-009>012-014-015-017-301000-
NORTHWEST OKLAHOMA AND THE PANHANDLE

CITY           SKY/WX    TMP DP  RH WIND       PRES   REMARKS
GAGE           CLOUDY    73  66  78 S3        30.03F
GUYMON         PTCLDY    66  63  90 N3        30.05S
ENID/WOODRING  PTCLDY    72  70  94 CALM      29.97F
$$

OKZ016-021>023-033>039-044-045-301000-
SOUTHWEST OKLAHOMA

CITY           SKY/WX    TMP DP  RH WIND       PRES   REMARKS
LAWTON/REGL    CLOUDY    77  69  76 SE7       29.96S
LAWTON/FT SILL CLOUDY    77  70  79 SE7       29.95S
FREDERICK      CLOUDY    76  70  82 E8        29.94S
CLINTON        MOCLDY    76  67  73 SE8       30.02S
HOBART         PTCLDY    75  68  78 CALM      29.98S
ALTUS AFB      MOCLDY    76  67  73 SE7       29.96F
$$

OKZ018>020-024>031-301000-
CENTRAL OKLAHOMA

CITY           SKY/WX    TMP DP  RH WIND       PRES   REMARKS
OKLAHOMA CITY  CLOUDY    73  70  90 SE5       29.97F
OKC/WILEY POST PTCLDY    76  68  76 SE6       29.97F
OKC/TINKER AFB PTCLDY    72  67  84 SE6       29.97F
STILLWATER     PTCLDY    72  69  90 CALM      29.98S
GUTHRIE        CLOUDY    73  69  87 CALM      29.98S
$$

OKZ008-013-054>072-301000-
NORTHEAST OKLAHOMA

CITY           SKY/WX    TMP DP  RH WIND       PRES   REMARKS
TULSA          CLOUDY    74  70  87 E3        29.96S
TULSA/JONES    CLOUDY    72  71  97 CALM      29.97S
PONCA CITY     CLOUDY    72  69  90 CALM      29.98S
BARTLESVILLE   CLOUDY    70  68  93 CALM      29.99R
MUSKOGEE       CLEAR     71  70  96 CALM      29.98S
$$

OKZ032-040>043-046>053-073>077-301000-
SOUTH CENTRAL/SOUTHEAST OKLAHOMA

CITY           SKY/WX    TMP DP  RH WIND       PRES   REMARKS
ARDMORE/DWNTWN MOCLDY    77  72  83 S3        29.97F
MCALESTER      CLOUDY    74  70  87 MISG      29.98F
$$





USA.gov is the U.S. government's official web portal to all federal, state and local government web resources and services.